Hourly Weather Rugotino

Today, 18 April, Sunday

Time Temperature Precipitation Wind Pressure Humidity
00:00 +7°C° 0 mm 5 mps 748 mmHg 68%
01:00 +6°C° 0 mm 5 mps 748 mmHg 69%
02:00 +5°C° 0 mm 5 mps 748 mmHg 70%
03:00 +5°C° 0 mm 5 mps 748 mmHg 71%
04:00 +3°C° 0 mm 5 mps 748 mmHg 73%
05:00 +3°C° 0 mm 5 mps 748 mmHg 74%
06:00 +5°C° 0 mm 5 mps 748 mmHg 70%
07:00 +6°C° 0 mm 5 mps 748 mmHg 67%
08:00 +7°C° 0 mm 5 mps 748 mmHg 63%
09:00 +8°C° 0 mm 5 mps 748 mmHg 59%
10:00 +9°C° 0 mm 6 mps 748 mmHg 54%
11:00 +10°C° 0 mm 6 mps 748 mmHg 50%
12:00 +10°C° 0 mm 5 mps 748 mmHg 52%
13:00 +10°C° 0 mm 5 mps 748 mmHg 54%
14:00 +10°C° 0 mm 5 mps 749 mmHg 56%
15:00 +11°C° 0 mm 4 mps 749 mmHg 59%
16:00 +10°C° 0 mm 4 mps 749 mmHg 62%
17:00 +10°C° 0 mm 4 mps 749 mmHg 66%
18:00 +8°C° 0 mm 4 mps 749 mmHg 69%
19:00 +7°C° 0 mm 4 mps 749 mmHg 73%
20:00 +6°C° 0 mm 4 mps 750 mmHg 77%
21:00 +6°C° 0 mm 4 mps 750 mmHg 77%
22:00 +6°C° 0 mm 4 mps 750 mmHg 77%
23:00 +7°C° 0 mm 3 mps 750 mmHg 77%

Tomorrow, 19 April, Monday

Time Temperature Precipitation Wind Pressure Humidity
00:00 +6°C° 0 mm 4 mps 750 mmHg 79%
01:00 +6°C° 0 mm 4 mps 750 mmHg 81%
02:00 +6°C° 0 mm 4 mps 750 mmHg 83%
03:00 +5°C° 0 mm 4 mps 750 mmHg 85%
04:00 +5°C° 0 mm 4 mps 750 mmHg 87%
05:00 +5°C° 0 mm 4 mps 750 mmHg 89%
06:00 +5°C° 0 mm 4 mps 750 mmHg 88%
07:00 +5°C° 0 mm 4 mps 751 mmHg 88%
08:00 +4°C° 0 mm 4 mps 751 mmHg 88%
09:00 +5°C° 0 mm 4 mps 751 mmHg 85%
10:00 +5°C° 0 mm 4 mps 751 mmHg 83%
11:00 +5°C° 0 mm 4 mps 751 mmHg 80%
12:00 +5°C° 0 mm 5 mps 751 mmHg 77%
13:00 +6°C° 0 mm 5 mps 751 mmHg 74%
14:00 +6°C° 0 mm 5 mps 751 mmHg 71%
15:00 +6°C° 0 mm 5 mps 751 mmHg 70%
16:00 +6°C° 0 mm 4 mps 751 mmHg 69%
17:00 +6°C° 0 mm 4 mps 751 mmHg 68%
18:00 +5°C° 0 mm 4 mps 751 mmHg 73%
19:00 +5°C° 0 mm 4 mps 751 mmHg 77%
20:00 +4°C° 0 mm 4 mps 751 mmHg 81%
21:00 +3°C° 0 mm 4 mps 751 mmHg 83%
22:00 +1°C° 0 mm 4 mps 751 mmHg 85%
23:00 +1°C° 0 mm 4 mps 750 mmHg 87%

Day after tomorrow, 20 April, Tuesday

Time Temperature Precipitation Wind Pressure Humidity
00:00 0°C° 0 mm 4 mps 750 mmHg 85%
01:00 0°C° 0 mm 4 mps 750 mmHg 83%
02:00 0°C° 0 mm 4 mps 749 mmHg 81%
03:00 -1°C° 0 mm 4 mps 749 mmHg 82%
04:00 -1°C° 0 mm 4 mps 749 mmHg 83%
05:00 -1°C° 0 mm 4 mps 748 mmHg 84%
06:00 -1°C° 0.3 mm 4 mps 748 mmHg 88%
07:00 -1°C° 0.3 mm 4 mps 748 mmHg 92%
08:00 -1°C° 0.3 mm 4 mps 748 mmHg 96%
09:00 0°C° 0.2 mm 4 mps 747 mmHg 96%
10:00 0°C° 0.2 mm 4 mps 747 mmHg 96%
11:00 0°C° 0.2 mm 4 mps 747 mmHg 96%
12:00 0°C° 0 mm 4 mps 746 mmHg 96%
13:00 +1°C° 0 mm 5 mps 746 mmHg 96%
14:00 +1°C° 0 mm 5 mps 746 mmHg 96%
15:00 +1°C° 0.1 mm 5 mps 745 mmHg 96%
16:00 +1°C° 0.1 mm 5 mps 745 mmHg 95%
17:00 +2°C° 0.1 mm 5 mps 744 mmHg 95%
18:00 +1°C° 0.3 mm 5 mps 744 mmHg 96%
19:00 +1°C° 0.3 mm 5 mps 743 mmHg 96%
20:00 +1°C° 0.3 mm 5 mps 742 mmHg 96%
21:00 +1°C° 1.1 mm 5 mps 741 mmHg 97%
22:00 +1°C° 1.1 mm 6 mps 740 mmHg 97%
23:00 +1°C° 1.1 mm 6 mps 739 mmHg 97%

21 April, Wednesday

Time Temperature Precipitation Wind Pressure Humidity
00:00 +1°C° 1.5 mm 6 mps 738 mmHg 97%
01:00 +1°C° 1.5 mm 6 mps 736 mmHg 97%
02:00 -1°C° 1.5 mm 6 mps 735 mmHg 97%
03:00 0°C° 2.9 mm 5 mps 734 mmHg 98%
04:00 0°C° 2.9 mm 5 mps 733 mmHg 98%
05:00 0°C° 2.9 mm 5 mps 732 mmHg 99%
06:00 0°C° 1.9 mm 5 mps 732 mmHg 99%
07:00 +1°C° 1.9 mm 4 mps 732 mmHg 99%
08:00 +3°C° 1.9 mm 4 mps 731 mmHg 99%
09:00 +3°C° 0.7 mm 4 mps 731 mmHg 99%
10:00 +4°C° 0.7 mm 4 mps 731 mmHg 99%
11:00 +4°C° 0.7 mm 3 mps 731 mmHg 99%
12:00 +3°C° 0.6 mm 4 mps 732 mmHg 98%
13:00 +1°C° 0.6 mm 5 mps 732 mmHg 98%
14:00 -1°C° 0.6 mm 6 mps 733 mmHg 98%
15:00 -1°C° 0.4 mm 6 mps 734 mmHg 98%
16:00 -1°C° 0.4 mm 6 mps 735 mmHg 98%
17:00 -1°C° 0.4 mm 6 mps 736 mmHg 98%
18:00 -1°C° 0.1 mm 6 mps 737 mmHg 97%
19:00 +1°C° 0.1 mm 6 mps 738 mmHg 96%
20:00 +1°C° 0.1 mm 5 mps 739 mmHg 95%
21:00 +1°C° 0 mm 5 mps 740 mmHg 95%
22:00 +1°C° 0 mm 5 mps 740 mmHg 95%
23:00 +1°C° 0 mm 4 mps 741 mmHg 95%

22 April, Thursday

Time Temperature Precipitation Wind Pressure Humidity
00:00 +1°C° 0 mm 4 mps 741 mmHg 95%
01:00 +1°C° 0 mm 4 mps 742 mmHg 95%
02:00 +1°C° 0 mm 4 mps 742 mmHg 94%
03:00 +1°C° 0 mm 4 mps 742 mmHg 94%
04:00 +1°C° 0 mm 4 mps 743 mmHg 94%
05:00 0°C° 0 mm 4 mps 743 mmHg 94%
06:00 +3°C° 0 mm 4 mps 744 mmHg 91%
07:00 +4°C° 0 mm 4 mps 744 mmHg 87%
08:00 +5°C° 0 mm 4 mps 745 mmHg 84%
09:00 +6°C° 0 mm 4 mps 745 mmHg 78%
10:00 +8°C° 0 mm 4 mps 745 mmHg 73%
11:00 +10°C° 0 mm 4 mps 746 mmHg 67%
12:00 +11°C° 0 mm 3 mps 746 mmHg 63%
13:00 +11°C° 0 mm 3 mps 746 mmHg 59%
14:00 +12°C° 0 mm 3 mps 746 mmHg 55%
15:00 +13°C° 0 mm 2 mps 746 mmHg 59%
16:00 +13°C° 0 mm 2 mps 746 mmHg 62%
17:00 +13°C° 0 mm 1 mps 746 mmHg 66%
18:00 +10°C° 0 mm 2 mps 747 mmHg 72%
19:00 +8°C° 0 mm 2 mps 747 mmHg 78%
20:00 +7°C° 0 mm 2 mps 747 mmHg 84%
21:00 +6°C° 0 mm 2 mps 747 mmHg 86%
22:00 +6°C° 0 mm 2 mps 747 mmHg 88%
23:00 +6°C° 0 mm 2 mps 747 mmHg 91%

23 April, Friday

Time Temperature Precipitation Wind Pressure Humidity
00:00 +5°C° 0 mm 2 mps 747 mmHg 91%
01:00 +5°C° 0 mm 2 mps 747 mmHg 92%
02:00 +5°C° 0 mm 2 mps 747 mmHg 93%
03:00 +5°C° 0 mm 2 mps 747 mmHg 93%
04:00 +5°C° 0 mm 2 mps 747 mmHg 93%
05:00 +5°C° 0 mm 2 mps 747 mmHg 93%
06:00 +7°C° 0 mm 3 mps 747 mmHg 87%
07:00 +9°C° 0 mm 3 mps 747 mmHg 81%
08:00 +11°C° 0 mm 4 mps 747 mmHg 75%
09:00 +12°C° 0.1 mm 4 mps 747 mmHg 71%
10:00 +13°C° 0.1 mm 5 mps 747 mmHg 68%
11:00 +14°C° 0.1 mm 5 mps 747 mmHg 64%
12:00 +15°C° 0.5 mm 5 mps 746 mmHg 63%
13:00 +15°C° 0.5 mm 5 mps 746 mmHg 62%
14:00 +15°C° 0.5 mm 5 mps 746 mmHg 61%
15:00 +15°C° 0.5 mm 5 mps 746 mmHg 64%
16:00 +14°C° 0.5 mm 4 mps 745 mmHg 68%
17:00 +13°C° 0.5 mm 4 mps 745 mmHg 71%
18:00 +12°C° 0.8 mm 4 mps 745 mmHg 76%
19:00 +11°C° 0.8 mm 3 mps 745 mmHg 80%
20:00 +10°C° 0.8 mm 3 mps 745 mmHg 85%
21:00 +10°C° 0.3 mm 3 mps 745 mmHg 88%
22:00 +9°C° 0.3 mm 2 mps 745 mmHg 92%
23:00 +8°C° 0.3 mm 2 mps 746 mmHg 96%
Show more